Location: Mt. Cuba Astronomical Observatory
(39.8100°N, 75.6300°W)
Time: 14:06:23
(UTC-05:00)

Daily predictions for brighter satellites

Satellite Brightness Start Highest point End
(mag) Time Altitude Azimuth Time Altitude Azimuth Time Altitude Azimuth
Cosmos 1709 Rocket 4.0 18:12:02 10° S 18:18:09 63° E 18:24:13 10° NNE
Okean 1 Rocket 3.6 18:19:18 10° SSE 18:23:25 37° E 18:27:32 10° NNE
Cosmos 1602 3.8 18:22:43 10° S 18:26:31 56° E 18:30:22 10° NNE
Meteor 1-11 Rocket 3.9 18:22:26 10° S 18:28:03 55° E 18:33:49 10° NNE
Cosmos 2151 Rocket 4.1 18:23:34 10° SSW 18:28:03 69° W 18:32:35 10° N
OTV 4 2.9 18:28:34 10° SSE 18:29:24 11° SSE 18:30:12 10° SE
Cosmos 1833 4.3 18:24:45 10° SSW 18:30:28 84° WNW 18:36:09 10° NNE
Cosmos 1340 2.6 18:28:47 10° N 18:32:35 81° E 18:36:22 10° SSE
ALOS 2.8 18:30:30 10° SE 18:34:47 37° ENE 18:39:05 10° N
Cosmos 1023 Rocket 4.4 18:29:57 10° SSW 18:35:01 84° ESE 18:40:12 10° NNE
Cosmos 1025 Rocket 4.0 18:31:26 10° NNE 18:35:08 26° ENE 18:38:49 10° SE
SL-16 R/B 3.9 18:31:05 10° NW 18:36:15 37° WSW 18:41:23 10° S
Cosmos 2333 Rocket 3.5 18:34:19 10° N 18:38:32 20° NE 18:41:49 13° E
NOAA 12 4.2 18:42:48 10° SSE 18:48:07 83° WSW 18:53:29 10° NNW
FENGYUN 3A 3.8 18:43:56 10° SSE 18:49:11 53° ENE 18:54:28 10° N
Abrixas rocket 2.2 18:47:23 10° SW 18:50:43 74° SSE 18:52:57 19° ENE
Cosmos 1741 Rocket 3.9 18:47:28 10° S 18:52:39 72° ESE 18:57:52 10° NNE
FREGAT/IRIS 2.6 18:49:36 10° S 18:52:40 85° WSW 18:55:47 10° NNW
Tiangong 2 4.1 18:53:49 10° WSW 18:54:47 11° SW 18:55:46 10° SSW
Cosmos 2285 Rocket 4.4 18:49:01 10° N 18:55:07 43° ENE 19:01:08 10° SE
Genesis I 3.1 18:52:11 10° NNW 18:56:08 77° ENE 19:00:02 10° SE
GEOS 3 Rocket 3.9 18:52:15 10° NE 18:57:17 45° ESE 19:02:20 10° SSW
Okean 1-7 Rocket 3.6 18:53:10 10° N 18:57:40 62° E 19:02:04 10° SSE
GPS 2-04 Rocket1 3.6 18:55:39 10° WSW 18:59:40 42° S 19:01:59 22° ESE
Meteor 1-5 Rocket 4.4 18:57:18 10° S 19:03:06 56° E 19:08:51 10° NNE
FengYun 1-2 T 4.1 18:57:46 10° SSE 19:03:12 70° ENE 19:08:42 10° N
Cosmos 1633 4.1 19:00:38 10° SSW 19:04:06 39° W 19:07:35 10° N
Cosmos 1140 Rocket 4.4 19:01:35 10° SW 19:06:33 50° WNW 19:11:35 10° N
Intercosmos 24 4.4 19:04:10 10° S 19:08:23 63° E 19:14:30 10° NNE
Cosmos 614 Rocket 4.4 19:04:42 10° SSW 19:09:43 62° WNW 19:14:46 10° NNE
Cosmos 2322 4.4 19:05:35 10° NNW 19:11:11 57° WSW 19:16:44 10° S
Cosmos 1570 Rocket 4.0 19:06:01 10° NNW 19:11:16 88° WSW 19:16:30 10° SSE
Hubble Space Telescope 2.9 19:09:40 10° SSW 19:11:47 14° S 19:12:52 13° SSE
SJ-6B 3.7 19:09:35 10° S 19:13:29 51° W 19:17:19 10° NNW
ATLAS CENTAUR R/B 2.3 19:10:32 10° SSW 19:14:33 31° SE 19:14:33 31° SE
ATLAS 2A CENTAUR R/B 4.1 19:18:05 10° SSW 19:19:58 13° SSE 19:22:36 10° SE
Cosmos 405 Rocket 3.1 19:19:31 10° N 19:23:26 44° ENE 19:23:33 44° E
Cosmos 468 Rocket 4.3 19:18:42 10° N 19:23:43 44° ENE 19:25:21 34° ESE
Helios 1A 3.1 19:23:44 41° ESE 19:24:33 47° ENE 19:28:33 10° N
USA 229 DEB 3.7 19:17:33 10° NNW 19:24:42 73° NE 19:29:53 21° SE
USA 229 3.7 19:17:39 10° NNW 19:24:48 72° NE 19:29:56 21° SE
CZ-2D R/B 3.1 19:24:00 33° SE 19:25:30 63° ENE 19:29:17 10° N
H-2A R/B 2.6 19:23:05 10° SSE 19:26:47 89° WSW 19:30:34 10° NNW
Spot 2 Rocket 3.4 19:21:46 10° SSE 19:26:49 89° WSW 19:31:56 10° NNW
Okean 2 3.3 19:22:49 10° N 19:26:59 66° E 19:29:23 24° SSE
Cosmos 2237 Rocket 2.8 19:22:18 10° N 19:27:29 34° ENE 19:28:14 33° ENE
Gbstr 26 Del rocket 4.1 19:24:14 10° W 19:27:39 31° NNW 19:29:28 20° NNE
Cosmos 2333 4.2 19:22:23 10° NNW 19:28:09 89° ENE 19:33:42 11° SSE
COSMOS 2428 2.8 19:23:13 10° NNW 19:28:55 79° WSW 19:34:35 10° SSE
Cosmos 2297 Rocket 3.6 19:24:18 10° SSE 19:26:19 19° SE 19:26:19 19° SE
Helios 1B rocket 2.5 19:25:53 10° NNE 19:29:57 53° E 19:34:00 10° S
Meteor 2-4 Rocket 4.3 19:27:46 10° NNW 19:33:10 57° W 19:38:25 10° S
Resurs 01 Rocket 2.0 19:31:16 10° S 19:35:38 65° W 19:40:02 10° NNW
Atlas Centaur 2 4.1 19:33:56 10° SSW 19:37:56 16° SSE 19:38:25 16° SSE
Cosmos 1610 Rocket 4.3 19:33:21 10° S 19:39:34 80° E 19:45:45 10° N
Cosmos 2360 Rocket 4.2 19:35:49 10° NW 19:40:31 28° WSW 19:45:13 10° SSW
Cosmos 2219 Rocket 2.0 19:35:47 10° NNW 19:41:24 74° ENE 19:43:37 38° SE
Envisat 3.6 19:44:07 39° NE 19:44:07 39° NE 19:48:06 10° N
Cosmos 1814 Rocket 4.1 19:38:35 10° N 19:43:32 49° ENE 19:43:32 49° ENE
Cosmos 2219 4.1 19:40:18 10° SW 19:45:51 48° WNW 19:51:25 10° NNE
Resurs 1-3 4.2 19:44:16 10° S 19:48:33 55° W 19:52:53 10° NNW
Cosmos 2227 Rocket 2.2 19:43:36 10° S 19:49:06 56° ESE 19:49:27 55° E
NOSS 3-1 (C) 4.1 19:48:25 10° NNW 19:55:51 56° NE 19:57:53 46° E
SL-16 R/B 3.6 19:57:34 10° N 20:00:38 24° NNE 20:00:38 24° NNE
OTV 4 3.6 20:02:11 10° SW 20:02:21 11° SW 20:02:21 11° SW
Cosmos 1892 Rocket 4.1 20:01:59 10° NNW 20:06:16 57° W 20:06:48 53° SW
Cosmos 2333 Rocket 2.5 20:17:35 10° NNW 20:23:16 63° WSW 20:23:54 59° SW
Cosmos 1980 3.8 20:20:55 10° NNW 20:26:08 70° WNW 20:26:08 70° WNW
Nadezhda 3 Rocket 4.3 20:23:01 10° NNW 20:29:04 61° W 20:31:35 35° SSW
Cosmos 2341 Rocket 4.3 20:29:53 10° SSW 20:36:11 67° W 20:42:34 10° N
Cosmos 2237 Rocket 3.9 21:06:25 10° NW 21:10:07 30° WNW 21:10:07 30° WNW
ATLAS 2AS CENTAUR R/B 4.2 21:26:50 10° NNW 21:31:17 33° N 21:31:17 33° N
